カタログに戻る

PEGASUS DEB

運用中PO
NORAD 24581·DEBRIS·🇺🇸 United States

打ち上げ May 19, 1994 から Vandenberg Space Force Base

Loading…

次のパス (今後24時間)

TLE

最新Source: Space-Track

元期: Sep 14, 2026, 14:40 UTC

1 24581U 94029YH  26257.61136164  .00001781  00000-0  63929-3 0  9993
2 24581  81.5412 297.8993 0728689 162.8630 356.5030 13.40594592447881

AllMySatでPEGASUS DEBをリアルタイム追跡

Download on the App Store